owner,sensor,date,latitude,longitude,air_pressure(mBar),qcFlag 
TABS,ioos:station:wmo:42046:1,2008-06-01T00:00:00Z,27.8903,-94.0367,1015.29,11111222 
TABS,ioos:station:wmo:42046:1,2008-06-01T00:30:00Z,27.8903,-94.0367,1015.18,11111222 
TABS,ioos:station:wmo:42046:1,2008-06-01T01:00:00Z,27.8903,-94.0367,1015.21,11111222 
TABS,ioos:station:wmo:42046:1,2008-06-01T01:30:00Z,27.8903,-94.0367,1015.48,11111222 
TABS,ioos:station:wmo:42046:1,2008-06-01T02:00:00Z,27.8903,-94.0367,1015.4,11111222 
TABS,ioos:station:wmo:42046:1,2008-06-01T02:30:00Z,27.8903,-94.0367,1015.73,11111222 
TABS,ioos:station:wmo:42046:1,2008-06-01T03:00:00Z,27.8903,-94.0367,1015.94,11111222 
TABS,ioos:station:wmo:42046:1,2008-06-01T03:30:00Z,27.8903,-94.0367,1016.29,11111222 
TABS,ioos:station:wmo:42046:1,2008-06-01T04:00:00Z,27.8903,-94.0367,1016.31,11111222 
TABS,ioos:station:wmo:42046:1,2008-06-01T04:30:00Z,27.8903,-94.0367,1016.32,11111222 
TABS,ioos:station:wmo:42046:1,2008-06-01T05:00:00Z,27.8903,-94.0367,1016.23,11111222 
TABS,ioos:station:wmo:42046:1,2008-06-01T05:30:00Z,27.8903,-94.0367,1015.92,11111222 
TABS,ioos:station:wmo:42046:1,2008-06-01T06:00:00Z,27.8903,-94.0367,1015.57,11111222 
TABS,ioos:station:wmo:42046:1,2008-06-01T06:30:00Z,27.8903,-94.0367,1015.27,11111222 
TABS,ioos:station:wmo:42046:1,2008-06-01T07:00:00Z,27.8903,-94.0367,1014.9,11111222 
TABS,ioos:station:wmo:42046:1,2008-06-01T07:30:00Z,27.8903,-94.0367,1014.64,11111222 
TABS,ioos:station:wmo:42046:1,2008-06-01T08:00:00Z,27.8903,-94.0367,1014.4,11111222 
TABS,ioos:station:wmo:42046:1,2008-06-01T08:30:00Z,27.8903,-94.0367,1014.36,11111222 
TABS,ioos:station:wmo:42046:1,2008-06-01T09:00:00Z,27.8903,-94.0367,1014.2,11111222 
TABS,ioos:station:wmo:42046:1,2008-06-01T09:30:00Z,27.8903,-94.0367,1014.43,11111222 
TABS,ioos:station:wmo:42046:1,2008-06-01T10:00:00Z,27.8903,-94.0367,1014.65,11111222 
TABS,ioos:station:wmo:42046:1,2008-06-01T10:30:00Z,27.8903,-94.0367,1014.74,11111222 
TABS,ioos:station:wmo:42046:1,2008-06-01T11:00:00Z,27.8903,-94.0367,1014.84,11111222 
TABS,ioos:station:wmo:42046:1,2008-06-01T11:30:00Z,27.8903,-94.0367,1015.02,11111222 
TABS,ioos:station:wmo:42046:1,2008-06-01T12:00:00Z,27.8903,-94.0367,1015.18,11111222 
TABS,ioos:station:wmo:42046:1,2008-06-01T12:30:00Z,27.8903,-94.0367,1015.58,11111222 
TABS,ioos:station:wmo:42046:1,2008-06-01T13:00:00Z,27.8903,-94.0367,1015.8,11111222 
TABS,ioos:station:wmo:42046:1,2008-06-01T13:30:00Z,27.8903,-94.0367,1016.05,11111222 
TABS,ioos:station:wmo:42046:1,2008-06-01T14:00:00Z,27.8903,-94.0367,1016.48,11111222 
TABS,ioos:station:wmo:42046:1,2008-06-01T14:30:00Z,27.8903,-94.0367,1016.44,11111222 
TABS,ioos:station:wmo:42046:1,2008-06-01T15:00:00Z,27.8903,-94.0367,1016.43,11111222 
TABS,ioos:station:wmo:42046:1,2008-06-01T15:30:00Z,27.8903,-94.0367,1016.5,11111222 
TABS,ioos:station:wmo:42046:1,2008-06-01T16:00:00Z,27.8903,-94.0367,1016.69,11111222 
TABS,ioos:station:wmo:42046:1,2008-06-01T16:30:00Z,27.8903,-94.0367,1016.67,11111222 
TABS,ioos:station:wmo:42046:1,2008-06-01T17:00:00Z,27.8903,-94.0367,1016.4,11111222 
TABS,ioos:station:wmo:42046:1,2008-06-01T17:30:00Z,27.8903,-94.0367,1016.43,11111222 
TABS,ioos:station:wmo:42046:1,2008-06-01T18:00:00Z,27.8903,-94.0367,1016.31,11111222 
TABS,ioos:station:wmo:42046:1,2008-06-01T18:30:00Z,27.8903,-94.0367,1016.22,11111222 
TABS,ioos:station:wmo:42046:1,2008-06-01T19:00:00Z,27.8903,-94.0367,1016.18,11111222 
TABS,ioos:station:wmo:42046:1,2008-06-01T19:30:00Z,27.8903,-94.0367,1016.03,11111222 
TABS,ioos:station:wmo:42046:1,2008-06-01T20:00:00Z,27.8903,-94.0367,1015.75,11111222 
TABS,ioos:station:wmo:42046:1,2008-06-01T20:30:00Z,27.8903,-94.0367,1015.58,11111222 
TABS,ioos:station:wmo:42046:1,2008-06-01T21:00:00Z,27.8903,-94.0367,1015.41,11111222 
TABS,ioos:station:wmo:42046:1,2008-06-01T21:30:00Z,27.8903,-94.0367,1015.47,11111222 
TABS,ioos:station:wmo:42046:1,2008-06-01T22:00:00Z,27.8903,-94.0367,1015.29,11111222 
TABS,ioos:station:wmo:42046:1,2008-06-01T22:30:00Z,27.8903,-94.0367,1015.22,11111222 
TABS,ioos:station:wmo:42046:1,2008-06-01T23:00:00Z,27.8903,-94.0367,1015.13,11111222 
TABS,ioos:station:wmo:42046:1,2008-06-01T23:30:00Z,27.8903,-94.0367,1014.83,11111222 
TABS,ioos:station:wmo:42046:1,2008-06-02T00:00:00Z,27.8903,-94.0367,1014.6,11111222 
TABS,ioos:station:wmo:42046:1,2008-06-02T00:30:00Z,27.8903,-94.0367,1014.62,11111222 
TABS,ioos:station:wmo:42046:1,2008-06-02T01:00:00Z,27.8903,-94.0367,1014.51,11111222 
TABS,ioos:station:wmo:42046:1,2008-06-02T01:30:00Z,27.8903,-94.0367,1014.59,11111222 
TABS,ioos:station:wmo:42046:1,2008-06-02T02:00:00Z,27.8903,-94.0367,1014.79,11111222 
TABS,ioos:station:wmo:42046:1,2008-06-02T02:30:00Z,27.8903,-94.0367,1015.07,11111222 
TABS,ioos:station:wmo:42046:1,2008-06-02T03:00:00Z,27.8903,-94.0367,1015.48,11111222 
TABS,ioos:station:wmo:42046:1,2008-06-02T03:30:00Z,27.8903,-94.0367,1015.79,11111222 
TABS,ioos:station:wmo:42046:1,2008-06-02T04:00:00Z,27.8903,-94.0367,1015.83,11111222 
TABS,ioos:station:wmo:42046:1,2008-06-02T04:30:00Z,27.8903,-94.0367,1015.67,11111222 
TABS,ioos:station:wmo:42046:1,2008-06-02T05:00:00Z,27.8903,-94.0367,1015.81,11111222 
TABS,ioos:station:wmo:42046:1,2008-06-02T05:30:00Z,27.8903,-94.0367,1015.91,11111222 
TABS,ioos:station:wmo:42046:1,2008-06-02T06:00:00Z,27.8903,-94.0367,1015.41,11111222 
TABS,ioos:station:wmo:42046:1,2008-06-02T06:30:00Z,27.8903,-94.0367,1015.08,11111222 
TABS,ioos:station:wmo:42046:1,2008-06-02T07:00:00Z,27.8903,-94.0367,1014.89,11111222 
TABS,ioos:station:wmo:42046:1,2008-06-02T07:30:00Z,27.8903,-94.0367,1014.72,11111222 
TABS,ioos:station:wmo:42046:1,2008-06-02T08:00:00Z,27.8903,-94.0367,1014.52,11111222 
TABS,ioos:station:wmo:42046:1,2008-06-02T08:30:00Z,27.8903,-94.0367,1014.32,11111222 
TABS,ioos:station:wmo:42046:1,2008-06-02T09:00:00Z,27.8903,-94.0367,1014.29,11111222 
TABS,ioos:station:wmo:42046:1,2008-06-02T09:30:00Z,27.8903,-94.0367,1014.35,11111222 
TABS,ioos:station:wmo:42046:1,2008-06-02T10:00:00Z,27.8903,-94.0367,1014.35,11111222 
TABS,ioos:station:wmo:42046:1,2008-06-02T10:30:00Z,27.8903,-94.0367,1014.64,11111222 
TABS,ioos:station:wmo:42046:1,2008-06-02T11:00:00Z,27.8903,-94.0367,1014.73,11111222 
TABS,ioos:station:wmo:42046:1,2008-06-02T11:30:00Z,27.8903,-94.0367,1014.96,11111222 
TABS,ioos:station:wmo:42046:1,2008-06-02T12:00:00Z,27.8903,-94.0367,1015.13,11111222 
TABS,ioos:station:wmo:42046:1,2008-06-02T12:30:00Z,27.8903,-94.0367,1015.33,11111222 
TABS,ioos:station:wmo:42046:1,2008-06-02T13:00:00Z,27.8903,-94.0367,1015.67,11111222 
TABS,ioos:station:wmo:42046:1,2008-06-02T13:30:00Z,27.8903,-94.0367,1015.7,11111222 
TABS,ioos:station:wmo:42046:1,2008-06-02T14:00:00Z,27.8903,-94.0367,1015.84,11111222 
TABS,ioos:station:wmo:42046:1,2008-06-02T14:30:00Z,27.8903,-94.0367,1015.88,11111222 
TABS,ioos:station:wmo:42046:1,2008-06-02T15:00:00Z,27.8903,-94.0367,1015.86,11111222 
TABS,ioos:station:wmo:42046:1,2008-06-02T15:30:00Z,27.8903,-94.0367,1016.03,11111222 
TABS,ioos:station:wmo:42046:1,2008-06-02T16:00:00Z,27.8903,-94.0367,1016.27,11111222 
TABS,ioos:station:wmo:42046:1,2008-06-02T16:30:00Z,27.8903,-94.0367,1016.31,11111222 
TABS,ioos:station:wmo:42046:1,2008-06-02T17:00:00Z,27.8903,-94.0367,1016.27,11111222 
TABS,ioos:station:wmo:42046:1,2008-06-02T17:30:00Z,27.8903,-94.0367,1016.07,11111222 
TABS,ioos:station:wmo:42046:1,2008-06-02T18:00:00Z,27.8903,-94.0367,1015.92,11111222 
TABS,ioos:station:wmo:42046:1,2008-06-02T18:30:00Z,27.8903,-94.0367,1015.75,11111222 
TABS,ioos:station:wmo:42046:1,2008-06-02T19:00:00Z,27.8903,-94.0367,1015.61,11111222 
TABS,ioos:station:wmo:42046:1,2008-06-02T19:30:00Z,27.8903,-94.0367,1015.48,11111222 
TABS,ioos:station:wmo:42046:1,2008-06-02T20:00:00Z,27.8903,-94.0367,1015.38,11111222 
TABS,ioos:station:wmo:42046:1,2008-06-02T20:30:00Z,27.8903,-94.0367,1014.99,11111222 
TABS,ioos:station:wmo:42046:1,2008-06-02T21:00:00Z,27.8903,-94.0367,1014.68,11111222 
TABS,ioos:station:wmo:42046:1,2008-06-02T21:30:00Z,27.8903,-94.0367,1014.78,11111222 
TABS,ioos:station:wmo:42046:1,2008-06-02T22:00:00Z,27.8903,-94.0367,1014.75,11111222 
TABS,ioos:station:wmo:42046:1,2008-06-02T22:30:00Z,27.8903,-94.0367,1014.78,11111222 
TABS,ioos:station:wmo:42046:1,2008-06-02T23:00:00Z,27.8903,-94.0367,1014.47,11111222 
TABS,ioos:station:wmo:42046:1,2008-06-02T23:30:00Z,27.8903,-94.0367,1014.43,11111222 
TABS,ioos:station:wmo:42046:1,2008-06-03T00:00:00Z,27.8903,-94.0367,1014.29,11111222 
TABS,ioos:station:wmo:42046:1,2008-06-03T00:30:00Z,27.8903,-94.0367,1014.18,11111222 
TABS,ioos:station:wmo:42046:1,2008-06-03T01:00:00Z,27.8903,-94.0367,1014.2,11111222 
TABS,ioos:station:wmo:42046:1,2008-06-03T01:30:00Z,27.8903,-94.0367,1014.23,11111222 
TABS,ioos:station:wmo:42046:1,2008-06-03T02:00:00Z,27.8903,-94.0367,1014.2,11111222 
TABS,ioos:station:wmo:42046:1,2008-06-03T02:30:00Z,27.8903,-94.0367,1014.35,11111222 
TABS,ioos:station:wmo:42046:1,2008-06-03T03:00:00Z,27.8903,-94.0367,1014.69,11111222 
TABS,ioos:station:wmo:42046:1,2008-06-03T03:30:00Z,27.8903,-94.0367,1014.82,11111222 
TABS,ioos:station:wmo:42046:1,2008-06-03T04:00:00Z,27.8903,-94.0367,1014.89,11111222 
TABS,ioos:station:wmo:42046:1,2008-06-03T04:30:00Z,27.8903,-94.0367,1014.72,11111222 
TABS,ioos:station:wmo:42046:1,2008-06-03T05:00:00Z,27.8903,-94.0367,1014.71,11111222 
TABS,ioos:station:wmo:42046:1,2008-06-03T05:30:00Z,27.8903,-94.0367,1014.28,11111222 
TABS,ioos:station:wmo:42046:1,2008-06-03T06:00:00Z,27.8903,-94.0367,1013.96,11111222 
TABS,ioos:station:wmo:42046:1,2008-06-03T06:30:00Z,27.8903,-94.0367,1013.68,11111222 
TABS,ioos:station:wmo:42046:1,2008-06-03T07:00:00Z,27.8903,-94.0367,1013.38,11111222 
TABS,ioos:station:wmo:42046:1,2008-06-03T07:30:00Z,27.8903,-94.0367,1013.0,11111222 
TABS,ioos:station:wmo:42046:1,2008-06-03T08:00:00Z,27.8903,-94.0367,1012.87,11111222 
TABS,ioos:station:wmo:42046:1,2008-06-03T08:30:00Z,27.8903,-94.0367,1012.61,11111222 
TABS,ioos:station:wmo:42046:1,2008-06-03T09:00:00Z,27.8903,-94.0367,1012.61,11111222 
TABS,ioos:station:wmo:42046:1,2008-06-03T09:30:00Z,27.8903,-94.0367,1012.48,11111222 
TABS,ioos:station:wmo:42046:1,2008-06-03T10:00:00Z,27.8903,-94.0367,1012.49,11111222 
TABS,ioos:station:wmo:42046:1,2008-06-03T10:30:00Z,27.8903,-94.0367,1012.28,11111222 
TABS,ioos:station:wmo:42046:1,2008-06-03T11:00:00Z,27.8903,-94.0367,1012.54,11111222 
TABS,ioos:station:wmo:42046:1,2008-06-03T11:30:00Z,27.8903,-94.0367,1012.68,11111222 
TABS,ioos:station:wmo:42046:1,2008-06-03T12:00:00Z,27.8903,-94.0367,1012.83,11111222 
TABS,ioos:station:wmo:42046:1,2008-06-03T12:30:00Z,27.8903,-94.0367,1012.84,11111222 
TABS,ioos:station:wmo:42046:1,2008-06-03T13:00:00Z,27.8903,-94.0367,1013.18,11111222 
TABS,ioos:station:wmo:42046:1,2008-06-03T13:30:00Z,27.8903,-94.0367,1013.32,11111222 
TABS,ioos:station:wmo:42046:1,2008-06-03T14:00:00Z,27.8903,-94.0367,1013.47,11111222 
TABS,ioos:station:wmo:42046:1,2008-06-03T14:30:00Z,27.8903,-94.0367,1013.53,11111222 
TABS,ioos:station:wmo:42046:1,2008-06-03T15:00:00Z,27.8903,-94.0367,1013.5,11111222 
TABS,ioos:station:wmo:42046:1,2008-06-03T15:30:00Z,27.8903,-94.0367,1013.58,11111222 
TABS,ioos:station:wmo:42046:1,2008-06-03T16:00:00Z,27.8903,-94.0367,1013.54,11111222 
TABS,ioos:station:wmo:42046:1,2008-06-03T16:30:00Z,27.8903,-94.0367,1013.68,11111222 
TABS,ioos:station:wmo:42046:1,2008-06-03T17:00:00Z,27.8903,-94.0367,1013.58,11111222 
TABS,ioos:station:wmo:42046:1,2008-06-03T17:30:00Z,27.8903,-94.0367,1013.34,11111222 
TABS,ioos:station:wmo:42046:1,2008-06-03T18:00:00Z,27.8903,-94.0367,1013.2,11111222 
TABS,ioos:station:wmo:42046:1,2008-06-03T18:30:00Z,27.8903,-94.0367,1013.05,11111222 
TABS,ioos:station:wmo:42046:1,2008-06-03T19:00:00Z,27.8903,-94.0367,1012.94,11111222 
TABS,ioos:station:wmo:42046:1,2008-06-03T19:30:00Z,27.8903,-94.0367,1012.69,11111222 
TABS,ioos:station:wmo:42046:1,2008-06-03T20:00:00Z,27.8903,-94.0367,1012.53,11111222 
TABS,ioos:station:wmo:42046:1,2008-06-03T20:30:00Z,27.8903,-94.0367,1012.31,11111222 
TABS,ioos:station:wmo:42046:1,2008-06-03T21:00:00Z,27.8903,-94.0367,1012.01,11111222 
TABS,ioos:station:wmo:42046:1,2008-06-03T21:30:00Z,27.8903,-94.0367,1011.57,11111222 
TABS,ioos:station:wmo:42046:1,2008-06-03T22:00:00Z,27.8903,-94.0367,1011.5,11111222 
TABS,ioos:station:wmo:42046:1,2008-06-03T22:30:00Z,27.8903,-94.0367,1011.22,11111222 
TABS,ioos:station:wmo:42046:1,2008-06-03T23:00:00Z,27.8903,-94.0367,1011.21,11111222 
TABS,ioos:station:wmo:42046:1,2008-06-03T23:30:00Z,27.8903,-94.0367,1011.03,11111222 
TABS,ioos:station:wmo:42046:1,2008-06-04T00:00:00Z,27.8903,-94.0367,1011.03,11111222 
TABS,ioos:station:wmo:42046:1,2008-06-04T00:30:00Z,27.8903,-94.0367,1011.13,11111222 
TABS,ioos:station:wmo:42046:1,2008-06-04T01:00:00Z,27.8903,-94.0367,1011.08,11111222 
TABS,ioos:station:wmo:42046:1,2008-06-04T01:30:00Z,27.8903,-94.0367,1011.13,11111222 
TABS,ioos:station:wmo:42046:1,2008-06-04T02:00:00Z,27.8903,-94.0367,1011.24,11111222 
TABS,ioos:station:wmo:42046:1,2008-06-04T02:30:00Z,27.8903,-94.0367,1011.41,11111222 
TABS,ioos:station:wmo:42046:1,2008-06-04T03:00:00Z,27.8903,-94.0367,1011.56,11111222 
TABS,ioos:station:wmo:42046:1,2008-06-04T03:30:00Z,27.8903,-94.0367,1011.61,11111222 
TABS,ioos:station:wmo:42046:1,2008-06-04T04:00:00Z,27.8903,-94.0367,1011.51,11111222 
TABS,ioos:station:wmo:42046:1,2008-06-04T04:30:00Z,27.8903,-94.0367,1011.5,11111222 
TABS,ioos:station:wmo:42046:1,2008-06-04T05:00:00Z,27.8903,-94.0367,1011.54,11111222 
TABS,ioos:station:wmo:42046:1,2008-06-04T05:30:00Z,27.8903,-94.0367,1011.04,11111222 
TABS,ioos:station:wmo:42046:1,2008-06-04T06:00:00Z,27.8903,-94.0367,1010.86,11111222 
TABS,ioos:station:wmo:42046:1,2008-06-04T06:30:00Z,27.8903,-94.0367,1010.34,11111222 
TABS,ioos:station:wmo:42046:1,2008-06-04T07:00:00Z,27.8903,-94.0367,1009.82,11111222 
TABS,ioos:station:wmo:42046:1,2008-06-04T07:30:00Z,27.8903,-94.0367,1009.4,11111222 
TABS,ioos:station:wmo:42046:1,2008-06-04T08:00:00Z,27.8903,-94.0367,1009.21,11111222 
TABS,ioos:station:wmo:42046:1,2008-06-04T08:30:00Z,27.8903,-94.0367,1009.16,11111222 
TABS,ioos:station:wmo:42046:1,2008-06-04T09:00:00Z,27.8903,-94.0367,1009.11,11111222 
TABS,ioos:station:wmo:42046:1,2008-06-04T09:30:00Z,27.8903,-94.0367,1008.92,11111222 
TABS,ioos:station:wmo:42046:1,2008-06-04T10:00:00Z,27.8903,-94.0367,1009.15,11111222 
TABS,ioos:station:wmo:42046:1,2008-06-04T10:30:00Z,27.8903,-94.0367,1008.93,11111222 
TABS,ioos:station:wmo:42046:1,2008-06-04T11:00:00Z,27.8903,-94.0367,1008.94,11111222 
TABS,ioos:station:wmo:42046:1,2008-06-04T11:30:00Z,27.8903,-94.0367,1008.98,11111222 
TABS,ioos:station:wmo:42046:1,2008-06-04T12:00:00Z,27.8903,-94.0367,1009.43,11111222 
TABS,ioos:station:wmo:42046:1,2008-06-04T12:30:00Z,27.8903,-94.0367,1009.75,11111222 
TABS,ioos:station:wmo:42046:1,2008-06-04T13:00:00Z,27.8903,-94.0367,1010.0,11111222 
TABS,ioos:station:wmo:42046:1,2008-06-04T13:30:00Z,27.8903,-94.0367,1010.39,11111222 
TABS,ioos:station:wmo:42046:1,2008-06-04T14:00:00Z,27.8903,-94.0367,1010.43,11111222 
TABS,ioos:station:wmo:42046:1,2008-06-04T14:30:00Z,27.8903,-94.0367,1010.52,11111222 
TABS,ioos:station:wmo:42046:1,2008-06-04T15:00:00Z,27.8903,-94.0367,1010.52,11111222 
TABS,ioos:station:wmo:42046:1,2008-06-04T15:30:00Z,27.8903,-94.0367,1010.45,11111222 
TABS,ioos:station:wmo:42046:1,2008-06-04T16:00:00Z,27.8903,-94.0367,1010.74,11111222 
TABS,ioos:station:wmo:42046:1,2008-06-04T16:30:00Z,27.8903,-94.0367,1010.63,11111222 
TABS,ioos:station:wmo:42046:1,2008-06-04T17:00:00Z,27.8903,-94.0367,1010.68,11111222 
TABS,ioos:station:wmo:42046:1,2008-06-04T17:30:00Z,27.8903,-94.0367,1010.17,11111222 
TABS,ioos:station:wmo:42046:1,2008-06-04T18:00:00Z,27.8903,-94.0367,1010.39,11111222 
TABS,ioos:station:wmo:42046:1,2008-06-04T18:30:00Z,27.8903,-94.0367,1010.18,11111222 
TABS,ioos:station:wmo:42046:1,2008-06-04T19:00:00Z,27.8903,-94.0367,1009.96,11111222 
TABS,ioos:station:wmo:42046:1,2008-06-04T19:30:00Z,27.8903,-94.0367,1009.76,11111222 
TABS,ioos:station:wmo:42046:1,2008-06-04T20:00:00Z,27.8903,-94.0367,1009.68,11111222 
TABS,ioos:station:wmo:42046:1,2008-06-04T20:30:00Z,27.8903,-94.0367,1009.6,11111222 
TABS,ioos:station:wmo:42046:1,2008-06-04T21:00:00Z,27.8903,-94.0367,1009.22,11111222 
TABS,ioos:station:wmo:42046:1,2008-06-04T21:30:00Z,27.8903,-94.0367,1009.14,11111222 
TABS,ioos:station:wmo:42046:1,2008-06-04T22:00:00Z,27.8903,-94.0367,1008.78,11111222 
TABS,ioos:station:wmo:42046:1,2008-06-04T22:30:00Z,27.8903,-94.0367,1008.63,11111222 
TABS,ioos:station:wmo:42046:1,2008-06-04T23:00:00Z,27.8903,-94.0367,1008.64,11111222 
TABS,ioos:station:wmo:42046:1,2008-06-04T23:30:00Z,27.8903,-94.0367,1008.64,11111222 
TABS,ioos:station:wmo:42046:1,2008-06-05T00:00:00Z,27.8903,-94.0367,1008.74,11111222 
TABS,ioos:station:wmo:42046:1,2008-06-05T00:30:00Z,27.8903,-94.0367,1008.5,11111222 
TABS,ioos:station:wmo:42046:1,2008-06-05T01:00:00Z,27.8903,-94.0367,1008.45,11111222 
TABS,ioos:station:wmo:42046:1,2008-06-05T01:30:00Z,27.8903,-94.0367,1008.62,11111222 
TABS,ioos:station:wmo:42046:1,2008-06-05T02:00:00Z,27.8903,-94.0367,1008.72,11111222 
TABS,ioos:station:wmo:42046:1,2008-06-05T02:30:00Z,27.8903,-94.0367,1008.93,11111222 
TABS,ioos:station:wmo:42046:1,2008-06-05T03:00:00Z,27.8903,-94.0367,1009.32,11111222 
TABS,ioos:station:wmo:42046:1,2008-06-05T03:30:00Z,27.8903,-94.0367,1009.6,11111222 
TABS,ioos:station:wmo:42046:1,2008-06-05T04:00:00Z,27.8903,-94.0367,1009.5,11111222 
TABS,ioos:station:wmo:42046:1,2008-06-05T04:30:00Z,27.8903,-94.0367,1009.44,11111222 
TABS,ioos:station:wmo:42046:1,2008-06-05T05:00:00Z,27.8903,-94.0367,1009.2,11111222 
TABS,ioos:station:wmo:42046:1,2008-06-05T05:30:00Z,27.8903,-94.0367,1009.15,11111222 
TABS,ioos:station:wmo:42046:1,2008-06-05T06:00:00Z,27.8903,-94.0367,1008.83,11111222 
TABS,ioos:station:wmo:42046:1,2008-06-05T06:30:00Z,27.8903,-94.0367,1007.85,11111222 
TABS,ioos:station:wmo:42046:1,2008-06-05T07:00:00Z,27.8903,-94.0367,1008.05,11111222 
TABS,ioos:station:wmo:42046:1,2008-06-05T07:30:00Z,27.8903,-94.0367,1007.9,11111222 
TABS,ioos:station:wmo:42046:1,2008-06-05T08:00:00Z,27.8903,-94.0367,1007.83,11111222 
TABS,ioos:station:wmo:42046:1,2008-06-05T08:30:00Z,27.8903,-94.0367,1008.14,11111222 
TABS,ioos:station:wmo:42046:1,2008-06-05T09:00:00Z,27.8903,-94.0367,1007.96,11111222 
TABS,ioos:station:wmo:42046:1,2008-06-05T09:30:00Z,27.8903,-94.0367,1008.05,11111222 
TABS,ioos:station:wmo:42046:1,2008-06-05T10:00:00Z,27.8903,-94.0367,1008.36,11111222 
TABS,ioos:station:wmo:42046:1,2008-06-05T10:30:00Z,27.8903,-94.0367,1008.48,11111222 
TABS,ioos:station:wmo:42046:1,2008-06-05T11:00:00Z,27.8903,-94.0367,1008.43,11111222 
TABS,ioos:station:wmo:42046:1,2008-06-05T11:30:00Z,27.8903,-94.0367,1008.87,11111222 
TABS,ioos:station:wmo:42046:1,2008-06-05T12:00:00Z,27.8903,-94.0367,1009.05,11111222 
TABS,ioos:station:wmo:42046:1,2008-06-05T12:30:00Z,27.8903,-94.0367,1009.07,11111222 
TABS,ioos:station:wmo:42046:1,2008-06-05T13:00:00Z,27.8903,-94.0367,1009.25,11111222 
TABS,ioos:station:wmo:42046:1,2008-06-05T13:30:00Z,27.8903,-94.0367,1009.65,11111222 
TABS,ioos:station:wmo:42046:1,2008-06-05T14:00:00Z,27.8903,-94.0367,1010.05,11111222 
TABS,ioos:station:wmo:42046:1,2008-06-05T14:30:00Z,27.8903,-94.0367,1009.63,11111222 
TABS,ioos:station:wmo:42046:1,2008-06-05T15:00:00Z,27.8903,-94.0367,1009.96,11111222 
TABS,ioos:station:wmo:42046:1,2008-06-05T15:30:00Z,27.8903,-94.0367,1009.57,11111222 
TABS,ioos:station:wmo:42046:1,2008-06-05T16:00:00Z,27.8903,-94.0367,1010.39,11111222 
TABS,ioos:station:wmo:42046:1,2008-06-05T16:30:00Z,27.8903,-94.0367,1010.33,11111222 
TABS,ioos:station:wmo:42046:1,2008-06-05T17:00:00Z,27.8903,-94.0367,1010.77,11111222 
TABS,ioos:station:wmo:42046:1,2008-06-05T17:30:00Z,27.8903,-94.0367,1010.75,11111222 
TABS,ioos:station:wmo:42046:1,2008-06-05T18:00:00Z,27.8903,-94.0367,1010.79,11111222 
TABS,ioos:station:wmo:42046:1,2008-06-05T18:30:00Z,27.8903,-94.0367,1010.82,11111222 
TABS,ioos:station:wmo:42046:1,2008-06-05T19:00:00Z,27.8903,-94.0367,1010.77,11111222 
TABS,ioos:station:wmo:42046:1,2008-06-05T19:30:00Z,27.8903,-94.0367,1010.58,11111222 
TABS,ioos:station:wmo:42046:1,2008-06-05T20:00:00Z,27.8903,-94.0367,1010.46,11111222 
TABS,ioos:station:wmo:42046:1,2008-06-05T20:30:00Z,27.8903,-94.0367,1010.15,11111222 
TABS,ioos:station:wmo:42046:1,2008-06-05T21:00:00Z,27.8903,-94.0367,1010.13,11111222 
TABS,ioos:station:wmo:42046:1,2008-06-05T21:30:00Z,27.8903,-94.0367,1010.0,11111222 
TABS,ioos:station:wmo:42046:1,2008-06-05T22:00:00Z,27.8903,-94.0367,1009.86,11111222 
TABS,ioos:station:wmo:42046:1,2008-06-05T22:30:00Z,27.8903,-94.0367,1009.73,11111222 
TABS,ioos:station:wmo:42046:1,2008-06-05T23:00:00Z,27.8903,-94.0367,1009.9,11111222 
TABS,ioos:station:wmo:42046:1,2008-06-05T23:30:00Z,27.8903,-94.0367,1009.97,11111222 
TABS,ioos:station:wmo:42046:1,2008-06-06T00:00:00Z,27.8903,-94.0367,1009.97,11111222 
TABS,ioos:station:wmo:42046:1,2008-06-06T00:30:00Z,27.8903,-94.0367,1010.06,11111222 
TABS,ioos:station:wmo:42046:1,2008-06-06T01:00:00Z,27.8903,-94.0367,1010.39,11111222 
TABS,ioos:station:wmo:42046:1,2008-06-06T01:30:00Z,27.8903,-94.0367,1010.46,11111222 
TABS,ioos:station:wmo:42046:1,2008-06-06T02:00:00Z,27.8903,-94.0367,1010.4,11111222 
TABS,ioos:station:wmo:42046:1,2008-06-06T02:30:00Z,27.8903,-94.0367,1010.81,11111222 
TABS,ioos:station:wmo:42046:1,2008-06-06T03:00:00Z,27.8903,-94.0367,1011.2,11111222 
TABS,ioos:station:wmo:42046:1,2008-06-06T03:30:00Z,27.8903,-94.0367,1011.2,11111222 
TABS,ioos:station:wmo:42046:1,2008-06-06T04:00:00Z,27.8903,-94.0367,1011.39,11111222 
TABS,ioos:station:wmo:42046:1,2008-06-06T04:30:00Z,27.8903,-94.0367,1011.12,11111222 
TABS,ioos:station:wmo:42046:1,2008-06-06T05:00:00Z,27.8903,-94.0367,1010.78,11111222 
TABS,ioos:station:wmo:42046:1,2008-06-06T05:30:00Z,27.8903,-94.0367,1010.77,11111222 
TABS,ioos:station:wmo:42046:1,2008-06-06T06:00:00Z,27.8903,-94.0367,1010.17,11111222 
TABS,ioos:station:wmo:42046:1,2008-06-06T06:30:00Z,27.8903,-94.0367,1010.06,11111222 
TABS,ioos:station:wmo:42046:1,2008-06-06T07:00:00Z,27.8903,-94.0367,1010.23,11111222 
TABS,ioos:station:wmo:42046:1,2008-06-06T07:30:00Z,27.8903,-94.0367,1010.34,11111222 
TABS,ioos:station:wmo:42046:1,2008-06-06T08:00:00Z,27.8903,-94.0367,1010.39,11111222 
TABS,ioos:station:wmo:42046:1,2008-06-06T08:30:00Z,27.8903,-94.0367,1010.37,11111222 
TABS,ioos:station:wmo:42046:1,2008-06-06T09:00:00Z,27.8903,-94.0367,1010.24,11111222 
TABS,ioos:station:wmo:42046:1,2008-06-06T09:30:00Z,27.8903,-94.0367,1010.4,11111222 
TABS,ioos:station:wmo:42046:1,2008-06-06T10:00:00Z,27.8903,-94.0367,1010.44,11111222 
TABS,ioos:station:wmo:42046:1,2008-06-06T10:30:00Z,27.8903,-94.0367,1011.59,11111222 
TABS,ioos:station:wmo:42046:1,2008-06-06T11:00:00Z,27.8903,-94.0367,1011.94,11111222 
TABS,ioos:station:wmo:42046:1,2008-06-06T11:30:00Z,27.8903,-94.0367,1012.44,11111222 
TABS,ioos:station:wmo:42046:1,2008-06-06T12:00:00Z,27.8903,-94.0367,1012.75,11111222 
TABS,ioos:station:wmo:42046:1,2008-06-06T12:30:00Z,27.8903,-94.0367,1013.2,11111222 
TABS,ioos:station:wmo:42046:1,2008-06-06T13:00:00Z,27.8903,-94.0367,1013.36,11111222 
TABS,ioos:station:wmo:42046:1,2008-06-06T13:30:00Z,27.8903,-94.0367,1013.47,11111222 
TABS,ioos:station:wmo:42046:1,2008-06-06T14:00:00Z,27.8903,-94.0367,1014.01,11111222 
TABS,ioos:station:wmo:42046:1,2008-06-06T14:30:00Z,27.8903,-94.0367,1014.19,11111222 
TABS,ioos:station:wmo:42046:1,2008-06-06T15:00:00Z,27.8903,-94.0367,1014.88,11111222 
TABS,ioos:station:wmo:42046:1,2008-06-06T15:30:00Z,27.8903,-94.0367,1014.44,11111222 
TABS,ioos:station:wmo:42046:1,2008-06-06T16:00:00Z,27.8903,-94.0367,1014.93,11111222 
TABS,ioos:station:wmo:42046:1,2008-06-06T16:30:00Z,27.8903,-94.0367,1015.33,11111222 
TABS,ioos:station:wmo:42046:1,2008-06-06T17:00:00Z,27.8903,-94.0367,1015.16,11111222 
TABS,ioos:station:wmo:42046:1,2008-06-06T17:30:00Z,27.8903,-94.0367,1015.37,11111222 
TABS,ioos:station:wmo:42046:1,2008-06-06T18:00:00Z,27.8903,-94.0367,1015.58,11111222 
TABS,ioos:station:wmo:42046:1,2008-06-06T18:30:00Z,27.8903,-94.0367,1014.94,11111222 